[[{"header":{"parameterUnit":"m.s-1","parameterCategory":2,"la1":30.2991,"la2":30.254,"lo1":-89.0895,"lo2":-89.0444,"dy":0.0017,"dx":0.0017,"nx":28,"ny":28,"refTime":"2025-03-20T21:00:00:Z","depth":"0","parameterNumber":2,"parameterNumberName":"U-component_of_CURRENTS"},"data":[0,0,0,0,0,0,0,0,0,0,0,0,0,0,0,0,0,0,0,0,0,0,0,0,0,0,0,0,0,0,0,0,0,0,0,0,0,0,0,0,0,0,0,0,0,0,0,0,0,0,0,0,0,0,0,0,0,0,0.147,0.147,0,0.1488,0.1488,0.1488,0.15,0.15,0.1501,0.1501,0.1466,0.1465,0.1463,0,0,0,0,0,0,0,0,0,0,0,0,0,0.1425,0.1426,0.1469,0.147,0.147,0.1488,0.1488,0.1488,0.15,0.15,0.1501,0.1501,0.1466,0.1465,0.1463,0,0,0,0,0,0,0,0,0,0,0,0,0,0.1442,0.1426,0.1469,0.148,0.1482,0.1488,0.1488,0.1488,0.15,0.15,0.1501,0.1501,0.1467,0.1465,0.1463,0.1443,0,0,0.1458,0.1457,0,0,0,0,0,0,0,0,0.1441,0.1443,0.1478,0.1479,0.1481,0.1494,0.146,0.1471,0.15,0.149,0.1501,0.1501,0.1472,0.1469,0.1469,0.1442,0.144,0.1457,0.1456,0.1456,0.1455,0,0,0,0,0,0,0,0.144,0.1442,0.1474,0.1479,0.148,0.1478,0.148,0.1462,0.1475,0.1491,0.1493,0.1498,0.1472,0.1471,0.1468,0.144,0.1458,0.1456,0.1455,0.1454,0.1412,0.1412,0,0,0,0,0,0,0.1443,0.1441,0.1474,0.1475,0.1464,0.1478,0.1481,0.1488,0.1477,0.1477,0.1498,0.1499,0.1474,0.1471,0.1467,0.1458,0.1456,0.1454,0.1453,0.1412,0.1412,0.1412,0,0,0,0,0,0,0.1442,0.1446,0.1473,0.1461,0.1464,0.1479,0.1486,0.1488,0.1491,0.1483,0.1482,0.15,0.1474,0.147,0.1453,0.1457,0.1453,0.1451,0.1412,0.1412,0.1412,0.1431,0,0,0,0,0,0,0.1441,0.1445,0.1445,0.1461,0.1465,0.1474,0.1486,0.1488,0.1495,0.1496,0.1484,0.1481,0.1474,0.1456,0.1451,0.1454,0.145,0.1412,0.1412,0.1412,0.143,0.1431,0.1432,0,0,0,0,0,0.1439,0.1438,0.1445,0.1449,0.1466,0.1473,0.1475,0.1485,0.1494,0.149,0.1486,0.1482,0.1452,0.1454,0.1449,0.1451,0.1412,0.1412,0.1412,0.143,0.1431,0.1432,0,0,0,0,0,0,0.1416,0.144,0.1447,0.1453,0.1462,0.1476,0.1475,0.1485,0.148,0.1481,0.1475,0.1471,0.1462,0.145,0.1452,0.1439,0.1433,0.1432,0.1449,0.145,0.1451,0.1475,0.1449,0,0,0,0,0,0.1412,0.1419,0.1438,0.1441,0.1446,0.1461,0.1465,0.1474,0.1476,0.1475,0.1468,0.1461,0.1456,0.1448,0.1438,0.1423,0.1452,0.1423,0.1424,0.1425,0.1441,0.149,0.1498,0.1412,0.1412,0.1412,0,0,0.1403,0.1418,0.1421,0.1437,0.1445,0.1449,0.1463,0.147,0.1476,0.147,0.1466,0.1462,0.1454,0.1445,0.144,0.1435,0.1464,0.1425,0.1426,0.1442,0.1491,0.15,0.1508,0.1412,0.1412,0.1412,0,0,0.1389,0.1404,0.1403,0.1411,0.1427,0.1439,0.1442,0.1455,0.1463,0.1456,0.1464,0.1465,0.1441,0.1449,0.1448,0.1446,0.147,0.1438,0.1459,0.1507,0.1515,0.1523,0.1573,0.1585,0.1436,0.1436,0.1436,0,0.1377,0.1387,0.1402,0.1403,0.1419,0.1434,0.1443,0.1446,0.1451,0.1472,0.1454,0.1468,0.1448,0.1473,0.1468,0.1451,0.1486,0.1455,0.1511,0.1519,0.1527,0.1576,0.1589,0.1437,0.1437,0.1436,0.1436,0,0.1362,0.1373,0.1374,0.1388,0.14,0.1411,0.1428,0.1439,0.145,0.1467,0.1492,0.1477,0.1498,0.1481,0.1468,0.1513,0.1524,0.1511,0.1513,0.1537,0.1587,0.16,0.1438,0.1438,0.1437,0.1437,0,0,0.1338,0.1362,0.1363,0.1386,0.1403,0.1421,0.1431,0.1468,0.1509,0.1497,0.1553,0.1527,0.1546,0.1547,0.154,0.1563,0.1629,0.1558,0.156,0.1618,0.175,0.1746,0.176,0.1633,0.1636,0.1637,0.1764,0,0.1329,0.1347,0.1357,0.1384,0.1405,0.1433,0.1455,0.1489,0.1517,0.1567,0.1575,0.1611,0.1564,0.1587,0.1603,0.1631,0.1665,0.1597,0.171,0.1713,0.1716,0.1776,0.177,0.1882,0.1778,0.178,0.1781,0,0.1313,0.1339,0.1365,0.1427,0.144,0.1454,0.1534,0.1554,0.1618,0.1647,0.1686,0.1703,0.1741,0.1695,0.1765,0.1728,0.1745,0.1755,0.176,0.1763,0.1735,0.184,0.191,0.1918,0.1802,0.18,0.1799,0,0.1316,0.135,0.1385,0.1399,0.1456,0.1486,0.152,0.1583,0.1635,0.1711,0.1765,0.1808,0.1848,0.1872,0.1875,0.1838,0.1957,0.1912,0.193,0.193,0.1951,0.1948,0.2053,0.1977,0.1977,0.1977,0.1976,0,0.1317,0.1347,0.1393,0.1415,0.1478,0.1509,0.1585,0.1628,0.1711,0.1775,0.1813,0.1872,0.1896,0.1952,0.1939,0.1988,0.2017,0.1963,0.1972,0.1955,0.1951,0.1978,0.1961,0.1982,0.1981,0.198,0.1979,0,0.1317,0.134,0.139,0.1455,0.1479,0.1526,0.1618,0.1672,0.1752,0.1839,0.1871,0.1958,0.2023,0.2051,0.2105,0.2085,0.2091,0.2125,0.2102,0.2106,0.2102,0.2085,0.209,0.2022,0.2177,0.2177,0.2178,0,0.1325,0.1347,0.1416,0.1445,0.1474,0.1546,0.1591,0.168,0.1736,0.1872,0.1912,0.2022,0.2078,0.2185,0.2187,0.2223,0.2139,0.2225,0.2139,0.2133,0.2122,0.2001,0.1932,0.218,0.2181,0.2182,0.2182,0,0.1349,0.1365,0.1402,0.1452,0.1499,0.1557,0.1625,0.1681,0.1775,0.186,0.1953,0.2021,0.2143,0.219,0.2257,0.2256,0.2165,0.2235,0.2248,0.216,0.202,0.1948,0.2064,0.2187,0.2186,0.2186,0.2186,0.2186,0.1366,0.1384,0.1415,0.146,0.1504,0.1539,0.1567,0.1643,0.1727,0.1832,0.1924,0.2029,0.2182,0.2279,0.2261,0.2294,0.2192,0.2263,0.2255,0.214,0.2036,0.216,0.2269,0.2269,0.2269,0.2269,0.2269,0,0.1374,0.1382,0.1421,0.1452,0.1465,0.1502,0.1563,0.1578,0.1635,0.1786,0.1874,0.2081,0.2194,0.2287,0.2398,0.2356,0.22,0.2309,0.2164,0.2099,0.2264,0.2227,0.231,0.231,0.231,0.231,0.2309,0.2309,0.1376,0.1387,0.1392,0.1396,0.1412,0.1403,0.1418,0.1458,0.1553,0.1703,0.1847,0.1984,0.2287,0.2543,0.2573,0.2485,0.2276,0.2201,0.213,0.2308,0.2302,0.2297,0.2261,0.2348,0.2348,0.1894,0.1892,0.189]},{"header":{"parameterUnit":"m.s-1","parameterCategory":2,"la1":30.2991,"la2":30.254,"lo1":-89.0895,"lo2":-89.0444,"dy":0.0017,"dx":0.0017,"nx":28,"ny":28,"refTime":"2025-03-20T21:00:00:Z","depth":"0","parameterNumber":3,"parameterNumberName":"V-component_of_CURRENTS"},"data":[0,0,0,0,0,0,0,0,0,0,0,0,0,0,0,0,0,0,0,0,0,0,0,0,0,0,0,0,0,0,0,0,0,0,0,0,0,0,0,0,0,0,0,0,0,0,0,0,0,0,0,0,0,0,0,0,0,0,-0.0253,-0.0253,0,-0.0277,-0.0277,-0.0278,-0.0316,-0.0317,-0.0318,-0.0318,-0.0362,-0.0363,-0.0363,0,0,0,0,0,0,0,0,0,0,0,0,0,-0.0234,-0.0235,-0.0253,-0.0253,-0.0253,-0.0277,-0.0277,-0.0278,-0.0316,-0.0317,-0.0318,-0.0319,-0.0362,-0.0363,-0.0363,0,0,0,0,0,0,0,0,0,0,0,0,0,-0.0249,-0.0235,-0.0253,-0.0276,-0.0278,-0.0277,-0.0277,-0.0278,-0.0316,-0.0317,-0.0318,-0.0319,-0.0362,-0.0363,-0.0363,-0.0346,0,0,-0.0365,-0.0366,0,0,0,0,0,0,0,0,-0.0248,-0.0249,-0.0272,-0.0274,-0.0277,-0.0295,-0.0287,-0.0302,-0.0316,-0.0301,-0.0318,-0.032,-0.0341,-0.0343,-0.0345,-0.0348,-0.035,-0.0366,-0.0366,-0.0366,-0.0366,0,0,0,0,0,0,0,-0.0247,-0.0248,-0.0262,-0.0272,-0.0275,-0.0283,-0.0286,-0.029,-0.0315,-0.0302,-0.0305,-0.0308,-0.0343,-0.0344,-0.0346,-0.035,-0.0366,-0.0366,-0.0367,-0.0367,-0.0367,-0.0366,0,0,0,0,0,0,-0.0243,-0.0247,-0.0261,-0.0263,-0.0265,-0.0283,-0.0286,-0.0288,-0.0314,-0.0319,-0.0307,-0.031,-0.0342,-0.0345,-0.0348,-0.0341,-0.0366,-0.0367,-0.0367,-0.0367,-0.0367,-0.0366,0,0,0,0,0,0,-0.0243,-0.0244,-0.026,-0.0256,-0.0259,-0.0282,-0.0283,-0.0288,-0.0292,-0.0318,-0.0324,-0.0307,-0.0343,-0.0347,-0.0352,-0.0343,-0.0367,-0.0368,-0.0368,-0.0367,-0.0366,-0.0319,0,0,0,0,0,0,-0.0242,-0.0244,-0.0238,-0.0256,-0.0259,-0.0252,-0.0282,-0.0287,-0.0292,-0.0296,-0.0319,-0.0325,-0.0344,-0.0351,-0.0353,-0.0344,-0.0368,-0.0368,-0.0367,-0.0367,-0.0321,-0.0317,-0.0313,0,0,0,0,0,-0.0241,-0.0225,-0.0237,-0.0239,-0.0252,-0.0251,-0.0253,-0.0273,-0.0291,-0.0283,-0.0306,-0.0324,-0.0348,-0.0351,-0.0353,-0.0345,-0.0369,-0.0368,-0.0367,-0.0323,-0.0318,-0.0314,0,0,0,0,0,0,-0.0211,-0.0228,-0.0242,-0.0232,-0.0239,-0.0258,-0.0249,-0.0267,-0.0278,-0.0285,-0.0314,-0.032,-0.0324,-0.0337,-0.0341,-0.0343,-0.0362,-0.0362,-0.0328,-0.0324,-0.032,-0.0324,-0.0369,0,0,0,0,0,-0.0202,-0.0199,-0.0215,-0.0207,-0.0207,-0.0228,-0.0229,-0.0246,-0.026,-0.0267,-0.0285,-0.0305,-0.0319,-0.0325,-0.0338,-0.0332,-0.0361,-0.033,-0.0326,-0.0322,-0.0328,-0.0369,-0.0369,-0.0363,-0.0363,-0.0363,0,0,-0.019,-0.0198,-0.0197,-0.0201,-0.0208,-0.0201,-0.0231,-0.023,-0.0231,-0.0268,-0.0269,-0.029,-0.0315,-0.0316,-0.0318,-0.0327,-0.0336,-0.0321,-0.0318,-0.0326,-0.0368,-0.0369,-0.0369,-0.0362,-0.0363,-0.0363,0,0,-0.0158,-0.0167,-0.0152,-0.0155,-0.0163,-0.0176,-0.0174,-0.019,-0.0202,-0.0203,-0.0237,-0.0255,-0.0264,-0.0288,-0.03,-0.028,-0.0315,-0.0279,-0.0261,-0.0299,-0.0301,-0.0302,-0.0325,-0.0329,-0.0276,-0.0276,-0.0275,0,-0.0143,-0.0131,-0.0146,-0.0131,-0.0133,-0.0162,-0.0149,-0.0158,-0.0177,-0.0188,-0.0197,-0.0235,-0.0254,-0.0272,-0.0267,-0.0272,-0.0295,-0.0275,-0.0295,-0.0297,-0.0299,-0.0323,-0.0328,-0.0273,-0.0273,-0.0274,-0.0274,0,-0.0102,-0.0094,-0.0082,-0.008,-0.0079,-0.0073,-0.0091,-0.0096,-0.0116,-0.0136,-0.0157,-0.0187,-0.0216,-0.0219,-0.0236,-0.0258,-0.0269,-0.0286,-0.0307,-0.0297,-0.0322,-0.0328,-0.027,-0.0271,-0.0271,-0.0272,0,0,-0.007,-0.0058,-0.0055,-0.0048,-0.0057,-0.0051,-0.0052,-0.0065,-0.007,-0.0095,-0.0107,-0.0138,-0.0169,-0.0185,-0.0213,-0.0243,-0.0272,-0.0266,-0.027,-0.029,-0.0348,-0.0349,-0.0356,-0.0294,-0.0295,-0.0296,-0.0354,0,-0.0038,-0.0004,-0.001,0.0015,0.0029,0.0002,0.0006,-0.0012,-0.0034,-0.0049,-0.0099,-0.0114,-0.0151,-0.0161,-0.0202,-0.0253,-0.0288,-0.0254,-0.0356,-0.0359,-0.0361,-0.0363,-0.0376,-0.0429,-0.036,-0.0361,-0.0362,0,0.0001,0.0016,0.0048,0.0055,0.006,0.0069,0.0058,0.0057,0.0022,0.0003,-0.0037,-0.0073,-0.0122,-0.0151,-0.0251,-0.0227,-0.0288,-0.0331,-0.0334,-0.036,-0.0371,-0.0432,-0.0443,-0.06,-0.0372,-0.0371,-0.037,0,0.0028,0.0053,0.0078,0.0082,0.009,0.0095,0.0093,0.007,0.0079,0.0034,0.0037,-0.0043,-0.0066,-0.016,-0.0249,-0.0254,-0.0356,-0.0375,-0.0435,-0.0435,-0.0481,-0.0483,-0.0659,-0.0457,-0.0457,-0.0457,-0.0457,0,0.006,0.0079,0.0094,0.0109,0.0142,0.0128,0.0153,0.0136,0.0126,0.0145,0.0067,0.0068,-0.007,-0.0139,-0.0238,-0.0349,-0.0354,-0.0437,-0.0456,-0.0461,-0.0461,-0.0627,-0.0716,-0.0459,-0.0459,-0.0458,-0.0458,0,0.0087,0.0095,0.013,0.0148,0.016,0.0182,0.0213,0.0233,0.0208,0.023,0.0224,0.0151,0.0055,-0.0079,-0.0225,-0.032,-0.0527,-0.0474,-0.0461,-0.0477,-0.0676,-0.076,-0.0959,-0.1027,-0.0554,-0.0554,-0.0555,0,0.01,0.0121,0.0169,0.0204,0.0217,0.0251,0.0284,0.0277,0.0306,0.0292,0.0315,0.0228,0.0187,-0.0028,-0.0226,-0.0409,-0.0553,-0.0538,-0.0557,-0.0697,-0.0806,-0.0866,-0.0913,-0.0594,-0.0595,-0.0595,-0.0596,0,0.0128,0.0148,0.0187,0.0261,0.0308,0.0362,0.0406,0.0448,0.0444,0.0464,0.0476,0.0441,0.0221,0.0028,-0.0233,-0.0372,-0.0665,-0.0554,-0.072,-0.0872,-0.0933,-0.1001,-0.0534,-0.06,-0.06,-0.06,-0.0599,-0.0599,0.0155,0.0194,0.0255,0.033,0.0389,0.0467,0.053,0.0578,0.064,0.0684,0.062,0.0593,0.0269,-0.009,-0.0304,-0.0714,-0.0709,-0.0833,-0.0927,-0.0975,-0.1044,-0.0574,-0.0646,-0.0646,-0.0645,-0.0645,-0.0645,0,0.0193,0.0246,0.0319,0.0415,0.0497,0.0513,0.0614,0.0685,0.0778,0.0797,0.0804,0.0602,0.0223,-0.0176,-0.0719,-0.1017,-0.1138,-0.1202,-0.1316,-0.1347,-0.0951,-0.0955,-0.1073,-0.1073,-0.1073,-0.1073,-0.1073,-0.1073,0.0217,0.0301,0.0348,0.0496,0.0565,0.0686,0.0756,0.0851,0.0901,0.0933,0.0888,0.081,0.0447,-0.0548,-0.1247,-0.1413,-0.1642,-0.1701,-0.1801,-0.1561,-0.1534,-0.1508,-0.1534,-0.1772,-0.1773,-0.2155,-0.2159,-0.2163]}],[{"header":{"parameterUnit":"m.s-1","parameterCategory":2,"la1":30.2991,"la2":30.254,"lo1":-89.0895,"lo2":-89.0444,"dy":0.0017,"dx":0.0017,"nx":28,"ny":28,"refTime":"2025-03-20T21:00:00:Z","depth":"2","parameterNumber":2,"parameterNumberName":"U-component_of_CURRENTS"},"data":[0,0,0,0,0,0,0,0,0,0,0,0,0,0,0,0,0,0,0,0,0,0,0,0,0,0,0,0,0,0,0,0,0,0,0,0,0,0,0,0,0,0,0,0,0,0,0,0,0,0,0,0,0,0,0,0,0,0,0.139,0.1391,0,0.1409,0.1409,0.1409,0.1424,0.1425,0.1425,0.1425,0.1396,0.1394,0.1393,0,0,0,0,0,0,0,0,0,0,0,0,0,0.1349,0.135,0.139,0.1391,0.1391,0.1409,0.1409,0.1409,0.1424,0.1425,0.1425,0.1426,0.1396,0.1395,0.1393,0,0,0,0,0,0,0,0,0,0,0,0,0,0.1365,0.135,0.139,0.1402,0.1404,0.1409,0.1409,0.1409,0.1424,0.1425,0.1425,0.1426,0.1396,0.1395,0.1393,0.1372,0,0,0.1388,0.1387,0,0,0,0,0,0,0,0,0.1364,0.1367,0.14,0.1402,0.1403,0.1417,0.1384,0.1395,0.1424,0.1414,0.1425,0.1426,0.1399,0.1397,0.1397,0.1371,0.1369,0.1388,0.1387,0.1386,0.1386,0,0,0,0,0,0,0,0.1363,0.1366,0.1396,0.1401,0.1403,0.1401,0.1404,0.1386,0.1401,0.1415,0.1417,0.1422,0.14,0.1399,0.1397,0.1369,0.1388,0.1386,0.1385,0.1385,0.1347,0.1347,0,0,0,0,0,0,0.1366,0.1365,0.1395,0.1396,0.1387,0.1402,0.1405,0.141,0.1402,0.1402,0.1422,0.1423,0.1401,0.1398,0.1395,0.139,0.1386,0.1384,0.1383,0.1347,0.1347,0.1347,0,0,0,0,0,0,0.1365,0.1368,0.1394,0.1383,0.1386,0.1402,0.1408,0.141,0.1416,0.1408,0.1407,0.1426,0.1402,0.1398,0.1384,0.1389,0.1384,0.1382,0.1347,0.1347,0.1347,0.1367,0,0,0,0,0,0,0.1364,0.1368,0.1369,0.1383,0.1387,0.1397,0.1408,0.141,0.142,0.1421,0.1411,0.1409,0.1402,0.1387,0.1383,0.1386,0.1381,0.1347,0.1347,0.1347,0.1366,0.1368,0.1369,0,0,0,0,0,0.1362,0.1362,0.1369,0.1373,0.139,0.1397,0.1398,0.141,0.1419,0.1417,0.1415,0.141,0.1384,0.1385,0.138,0.1384,0.1347,0.1347,0.1347,0.1366,0.1367,0.1369,0,0,0,0,0,0,0.1343,0.1364,0.1372,0.1379,0.1387,0.14,0.1401,0.1411,0.1408,0.1411,0.1404,0.1401,0.1394,0.1382,0.1384,0.1373,0.1367,0.1366,0.1383,0.1384,0.1385,0.141,0.1379,0,0,0,0,0,0.134,0.1347,0.1365,0.1369,0.1374,0.1388,0.1393,0.1402,0.1405,0.1405,0.1399,0.1393,0.1389,0.1382,0.1373,0.1359,0.1388,0.136,0.1361,0.1362,0.1379,0.1428,0.1436,0.1348,0.1348,0.1348,0,0,0.1333,0.1347,0.135,0.1365,0.1374,0.1378,0.1392,0.14,0.1406,0.14,0.1398,0.1395,0.1387,0.138,0.1375,0.137,0.1401,0.1362,0.1363,0.138,0.1429,0.1438,0.1446,0.1348,0.1348,0.1348,0,0,0.132,0.1336,0.1336,0.1344,0.136,0.1371,0.1375,0.1387,0.1397,0.1392,0.1399,0.1402,0.1379,0.1386,0.1385,0.1385,0.1409,0.1378,0.1401,0.1448,0.1456,0.1464,0.1513,0.1525,0.1376,0.1376,0.1376,0,0.1311,0.1321,0.1335,0.1337,0.1353,0.1369,0.1377,0.1381,0.1387,0.1408,0.1391,0.1406,0.1387,0.1411,0.1407,0.139,0.1426,0.1396,0.1452,0.1461,0.1468,0.1516,0.1529,0.1377,0.1377,0.1376,0.1376,0,0.1297,0.1309,0.1311,0.1325,0.1336,0.1348,0.1365,0.1377,0.139,0.1406,0.1433,0.1418,0.1439,0.1423,0.1409,0.1455,0.1466,0.1453,0.1454,0.1479,0.1527,0.154,0.1378,0.1378,0.1377,0.1377,0,0,0.1275,0.1299,0.1301,0.1325,0.1341,0.1359,0.137,0.1408,0.1449,0.1439,0.1496,0.1471,0.149,0.1491,0.1484,0.1507,0.1573,0.1502,0.1504,0.156,0.1693,0.1681,0.1694,0.1577,0.158,0.1581,0.1706,0,0.1268,0.1286,0.1297,0.1324,0.1346,0.1374,0.1396,0.143,0.146,0.151,0.1519,0.1556,0.1509,0.1533,0.1549,0.1575,0.1609,0.1542,0.1652,0.1656,0.165,0.171,0.1559,0.1656,0.1719,0.1721,0.1723,0,0.1253,0.1279,0.1306,0.1369,0.1382,0.1397,0.1479,0.1499,0.1564,0.1594,0.1634,0.1651,0.1689,0.1643,0.1711,0.1675,0.1691,0.1699,0.1704,0.17,0.1669,0.164,0.1678,0.1745,0.1743,0.1741,0.174,0,0.1257,0.1292,0.1328,0.1342,0.1399,0.1431,0.1466,0.153,0.1581,0.166,0.1713,0.1758,0.1797,0.1821,0.182,0.1785,0.1901,0.1856,0.1865,0.1864,0.1762,0.1748,0.1921,0.1921,0.1921,0.1921,0.192,0,0.1259,0.129,0.1337,0.1359,0.1424,0.1455,0.1533,0.1578,0.1661,0.1723,0.1763,0.182,0.1845,0.1899,0.1885,0.1927,0.196,0.1898,0.1906,0.1763,0.1749,0.1838,0.1827,0.1925,0.1924,0.1923,0.1922,0,0.1261,0.1283,0.1334,0.1401,0.1426,0.1474,0.1566,0.162,0.1701,0.1787,0.1818,0.1904,0.1965,0.1993,0.2045,0.2021,0.2051,0.2055,0.1888,0.1873,0.1968,0.1956,0.2095,0.2096,0.2096,0.2097,0.2098,0,0.127,0.1292,0.1362,0.1391,0.1422,0.1494,0.1539,0.1628,0.1682,0.1816,0.1853,0.1961,0.2009,0.2108,0.2087,0.2114,0.2101,0.1991,0.1887,0.1998,0.1992,0.1978,0.1966,0.1758,0.1756,0.1754,0.1752,0,0.1295,0.1312,0.1349,0.1399,0.1446,0.1502,0.1569,0.1623,0.1715,0.1797,0.1885,0.1946,0.204,0.2001,0.2053,0.2028,0.1972,0.1955,0.2139,0.1734,0.169,0.168,0.1677,0.1735,0.1737,0.1738,0.1739,0.174,0.1314,0.1332,0.1362,0.1407,0.145,0.1482,0.1509,0.1574,0.1652,0.1726,0.1822,0.185,0.1892,0.1888,0.1851,0.1818,0.1935,0.1836,0.1838,0.1843,0.1778,0.1737,0.178,0.1782,0.1784,0.1785,0.1787,0,0.132,0.1329,0.1367,0.1397,0.1404,0.1446,0.1503,0.1497,0.1537,0.1619,0.1677,0.1577,0.1596,0.1621,0.1559,0.1589,0.1529,0.1516,0.1411,0.1432,0.145,0.1359,0.1253,0.1251,0.1249,0.1248,0,0,0.1323,0.1329,0.1331,0.133,0.1349,0.133,0.1344,0.1345,0.1378,0.1378,0.1384,0.1512,0.1588,0.1386,0.1388,0.1305,0.1345,0.1259,0.1694,0.1592,0.1606,0.1656,0.1545,0,0,0,0,0]},{"header":{"parameterUnit":"m.s-1","parameterCategory":2,"la1":30.2991,"la2":30.254,"lo1":-89.0895,"lo2":-89.0444,"dy":0.0017,"dx":0.0017,"nx":28,"ny":28,"refTime":"2025-03-20T21:00:00:Z","depth":"2","parameterNumber":3,"parameterNumberName":"V-component_of_CURRENTS"},"data":[0,0,0,0,0,0,0,0,0,0,0,0,0,0,0,0,0,0,0,0,0,0,0,0,0,0,0,0,0,0,0,0,0,0,0,0,0,0,0,0,0,0,0,0,0,0,0,0,0,0,0,0,0,0,0,0,0,0,-0.012,-0.012,0,-0.0151,-0.0152,-0.0152,-0.0192,-0.0193,-0.0194,-0.0194,-0.0246,-0.0247,-0.0247,0,0,0,0,0,0,0,0,0,0,0,0,0,-0.0098,-0.0099,-0.012,-0.012,-0.012,-0.0151,-0.0152,-0.0152,-0.0192,-0.0193,-0.0194,-0.0195,-0.0246,-0.0246,-0.0247,0,0,0,0,0,0,0,0,0,0,0,0,0,-0.0116,-0.0099,-0.0119,-0.0144,-0.0147,-0.0151,-0.0152,-0.0152,-0.0192,-0.0193,-0.0194,-0.0195,-0.0245,-0.0246,-0.0247,-0.0234,0,0,-0.0251,-0.0251,0,0,0,0,0,0,0,0,-0.0115,-0.0117,-0.014,-0.0143,-0.0145,-0.0169,-0.0163,-0.0181,-0.0192,-0.0175,-0.0194,-0.0196,-0.0221,-0.0224,-0.0228,-0.0237,-0.0239,-0.0251,-0.0252,-0.0252,-0.0252,0,0,0,0,0,0,0,-0.0114,-0.0116,-0.0132,-0.0141,-0.0144,-0.0155,-0.0159,-0.0167,-0.0192,-0.0176,-0.0179,-0.0183,-0.0223,-0.0226,-0.0229,-0.024,-0.0251,-0.0252,-0.0253,-0.0253,-0.0269,-0.0269,0,0,0,0,0,0,-0.0109,-0.0115,-0.0131,-0.0133,-0.0133,-0.0155,-0.0159,-0.016,-0.0192,-0.0197,-0.0182,-0.0185,-0.0224,-0.0228,-0.0231,-0.0233,-0.0252,-0.0253,-0.0254,-0.0269,-0.0269,-0.0268,0,0,0,0,0,0,-0.0108,-0.011,-0.013,-0.0125,-0.0128,-0.0154,-0.0155,-0.016,-0.0169,-0.0196,-0.0202,-0.0186,-0.0225,-0.023,-0.0241,-0.0235,-0.0254,-0.0255,-0.0269,-0.0269,-0.0269,-0.0226,0,0,0,0,0,0,-0.0108,-0.011,-0.0105,-0.0124,-0.0128,-0.0128,-0.0155,-0.016,-0.0169,-0.0173,-0.0201,-0.0207,-0.0226,-0.0239,-0.0242,-0.0237,-0.0256,-0.027,-0.0269,-0.0269,-0.0228,-0.0224,-0.0221,0,0,0,0,0,-0.0107,-0.0094,-0.0105,-0.0107,-0.0123,-0.0127,-0.013,-0.0152,-0.0168,-0.0165,-0.0189,-0.0206,-0.0239,-0.024,-0.0243,-0.0238,-0.027,-0.0269,-0.0269,-0.0229,-0.0225,-0.0221,0,0,0,0,0,0,-0.0081,-0.0098,-0.011,-0.0103,-0.0114,-0.0134,-0.0131,-0.0148,-0.0163,-0.017,-0.02,-0.0206,-0.0216,-0.023,-0.0231,-0.0242,-0.0258,-0.0258,-0.0227,-0.0223,-0.022,-0.022,-0.0257,0,0,0,0,0,-0.0074,-0.0072,-0.0089,-0.0084,-0.0086,-0.0108,-0.0112,-0.0129,-0.0147,-0.0155,-0.0175,-0.0197,-0.0214,-0.0222,-0.0237,-0.0237,-0.0264,-0.0238,-0.0235,-0.0232,-0.0235,-0.0274,-0.0275,-0.0267,-0.0267,-0.0267,0,0,-0.0064,-0.0072,-0.0072,-0.0079,-0.0088,-0.0084,-0.0113,-0.0117,-0.012,-0.0157,-0.0163,-0.0186,-0.0212,-0.0218,-0.0223,-0.023,-0.0245,-0.0231,-0.0228,-0.0233,-0.0274,-0.0275,-0.0276,-0.0266,-0.0266,-0.0266,0,0,-0.0038,-0.0048,-0.0036,-0.0041,-0.0052,-0.0066,-0.0066,-0.0084,-0.0098,-0.0104,-0.0136,-0.0157,-0.0173,-0.0196,-0.0209,-0.0196,-0.0228,-0.0198,-0.018,-0.0217,-0.0219,-0.022,-0.0242,-0.0246,-0.0195,-0.0195,-0.0195,0,-0.0027,-0.0017,-0.0032,-0.0022,-0.0024,-0.0054,-0.0044,-0.0056,-0.0079,-0.009,-0.0101,-0.0143,-0.0165,-0.0184,-0.0182,-0.0189,-0.0212,-0.0191,-0.0214,-0.0216,-0.0218,-0.0241,-0.0245,-0.0193,-0.0193,-0.0193,-0.0193,0,0.0007,0.0013,0.0022,0.0022,0.002,0.0023,0.0004,-0.0004,-0.0024,-0.0045,-0.0068,-0.0102,-0.0131,-0.0137,-0.0155,-0.0178,-0.0189,-0.0206,-0.0223,-0.0216,-0.024,-0.0246,-0.019,-0.019,-0.0191,-0.0191,0,0,0.0033,0.0043,0.0044,0.0052,0.004,0.0044,0.004,0.0027,0.0022,-0.0008,-0.0019,-0.0056,-0.0086,-0.0103,-0.0132,-0.0163,-0.0192,-0.0186,-0.0189,-0.0207,-0.0267,-0.0267,-0.0274,-0.0215,-0.0216,-0.0217,-0.0273,0,0.0061,0.009,0.0084,0.0106,0.0119,0.0093,0.0095,0.0076,0.0054,0.0038,-0.0012,-0.003,-0.0069,-0.008,-0.0121,-0.0173,-0.0208,-0.0175,-0.0273,-0.0275,-0.0276,-0.0281,-0.0252,-0.0299,-0.0279,-0.028,-0.028,0,0.0094,0.0108,0.0138,0.0148,0.0151,0.0158,0.015,0.0147,0.0112,0.0093,0.0051,0.0015,-0.0035,-0.0067,-0.0167,-0.0145,-0.0205,-0.0249,-0.0252,-0.0274,-0.0287,-0.0306,-0.0311,-0.029,-0.029,-0.0289,-0.0288,0,0.0122,0.0144,0.0169,0.0173,0.0181,0.0185,0.0184,0.0161,0.017,0.0124,0.0127,0.0047,0.0022,-0.0072,-0.0164,-0.0169,-0.027,-0.0289,-0.0349,-0.035,-0.0356,-0.0354,-0.037,-0.037,-0.0369,-0.0369,-0.0369,0,0.0152,0.0171,0.0185,0.02,0.0234,0.0219,0.0245,0.0228,0.0218,0.0237,0.0157,0.0157,0.0019,-0.0051,-0.0151,-0.0262,-0.0266,-0.035,-0.0369,-0.0338,-0.0334,-0.0354,-0.0352,-0.0371,-0.0371,-0.037,-0.037,0,0.0179,0.0187,0.0222,0.0239,0.0252,0.0274,0.0305,0.0325,0.0299,0.0322,0.0315,0.024,0.0144,0.0011,-0.0135,-0.023,-0.0343,-0.0384,-0.0329,-0.0341,-0.0402,-0.0396,-0.0461,-0.0462,-0.0463,-0.0463,-0.0463,0,0.0193,0.0214,0.026,0.0295,0.0308,0.0342,0.0376,0.0368,0.0398,0.0383,0.0406,0.0319,0.0275,0.0061,-0.0129,-0.031,-0.0339,-0.0402,-0.0416,-0.0402,-0.0414,-0.0407,-0.0401,-0.0402,-0.0402,-0.0402,-0.0402,0,0.0223,0.0241,0.028,0.0353,0.0399,0.0453,0.0497,0.0539,0.0535,0.0553,0.056,0.0523,0.0312,0.0133,-0.0122,-0.0244,-0.0374,-0.0405,-0.0415,-0.0379,-0.035,-0.036,-0.0355,-0.04,-0.0401,-0.0401,-0.0401,-0.0401,0.0252,0.0289,0.0348,0.0422,0.048,0.0557,0.0617,0.0665,0.0723,0.0758,0.0696,0.0644,0.0418,0.0105,-0.0121,-0.0361,-0.0359,-0.0436,-0.0436,-0.0435,-0.0414,-0.0387,-0.044,-0.044,-0.044,-0.0441,-0.0441,0,0.0293,0.0341,0.0414,0.0506,0.0588,0.0601,0.07,0.0766,0.0852,0.0852,0.085,0.0659,0.0431,0.017,-0.0179,-0.039,-0.0409,-0.0456,-0.0431,-0.043,-0.043,-0.0408,-0.0433,-0.0433,-0.0434,-0.0435,0,0,0.0318,0.0401,0.0447,0.0589,0.0653,0.0771,0.0837,0.0921,0.0955,0.0985,0.0942,0.084,0.0513,0.027,-0.0025,-0.0228,-0.0281,-0.027,-0.0253,-0.0187,-0.0184,-0.0394,-0.0357,0,0,0,0,0]}],[{"header":{"parameterUnit":"m.s-1","parameterCategory":2,"la1":30.2991,"la2":30.254,"lo1":-89.0895,"lo2":-89.0444,"dy":0.0017,"dx":0.0017,"nx":28,"ny":28,"refTime":"2025-03-20T21:00:00:Z","depth":"4","parameterNumber":2,"parameterNumberName":"U-component_of_CURRENTS"},"data":[0,0,0,0,0,0,0,0,0,0,0,0,0,0,0,0,0,0,0,0,0,0,0,0,0,0,0,0,0,0,0,0,0,0,0,0,0,0,0,0,0,0,0,0,0,0,0,0,0,0,0,0,0,0,0,0,0,0,0.0629,0.063,0,0.0697,0.0699,0.07,0.0762,0.0762,0.0763,0.0763,0.0856,0.0858,0.086,0,0,0,0,0,0,0,0,0,0,0,0,0,0.0548,0.0549,0.0629,0.063,0.063,0.0697,0.0699,0.07,0.0762,0.0763,0.0763,0.0764,0.0856,0.0858,0.0861,0,0,0,0,0,0,0,0,0,0,0,0,0,0.0599,0.055,0.0629,0.0667,0.0671,0.0697,0.0699,0.07,0.0762,0.0763,0.0763,0.0764,0.0855,0.0858,0.0861,0.0865,0,0,0.087,0.0871,0,0,0,0,0,0,0,0,0.0596,0.0602,0.0661,0.0665,0.0669,0.0719,0.0704,0.0755,0.0762,0.073,0.0763,0.0764,0.081,0.0817,0.0832,0.0869,0.0873,0.087,0.0872,0.0873,0.0874,0,0,0,0,0,0,0,0.0592,0.06,0.0659,0.0662,0.0666,0.0679,0.0688,0.0714,0.0768,0.0733,0.0737,0.074,0.0813,0.0829,0.0835,0.0874,0.087,0.0873,0.0875,0.0876,0.0972,0.0973,0,0,0,0,0,0,0.0578,0.0596,0.0657,0.0661,0.063,0.068,0.0689,0.0705,0.0767,0.0777,0.0739,0.0743,0.0824,0.0831,0.0838,0.0905,0.0873,0.0876,0.0878,0.0971,0.0972,0.0973,0,0,0,0,0,0,0.0576,0.0583,0.0654,0.0627,0.0637,0.068,0.0697,0.0706,0.0753,0.0771,0.0782,0.078,0.0824,0.0834,0.0888,0.0907,0.0878,0.088,0.097,0.0971,0.0972,0.1002,0,0,0,0,0,0,0.0574,0.0582,0.0602,0.0626,0.0638,0.0696,0.0696,0.0706,0.075,0.0756,0.0809,0.0817,0.0826,0.0883,0.0891,0.0911,0.0883,0.0969,0.0971,0.0972,0.1,0.1004,0.1007,0,0,0,0,0,0.0571,0.0586,0.0603,0.0611,0.0659,0.0697,0.0706,0.0739,0.0751,0.0783,0.0813,0.0817,0.0897,0.0887,0.0896,0.0917,0.0969,0.097,0.0972,0.0998,0.1003,0.1007,0,0,0,0,0,0,0.0565,0.0594,0.0613,0.064,0.0679,0.0707,0.0735,0.0756,0.0805,0.0819,0.0835,0.0845,0.0896,0.0903,0.0892,0.0946,0.093,0.0933,0.0947,0.0951,0.0955,0.0953,0.0885,0,0,0,0,0,0.0571,0.0593,0.0626,0.0655,0.0675,0.0712,0.0736,0.0763,0.0798,0.0823,0.0852,0.0881,0.0903,0.0927,0.095,0.0989,0.1002,0.1004,0.1008,0.1011,0.1014,0.1049,0.1056,0.0978,0.0978,0.0978,0,0,0.0577,0.0595,0.0611,0.0655,0.0689,0.0725,0.0731,0.0779,0.0811,0.0823,0.0883,0.0901,0.0917,0.0956,0.0978,0.097,0.1043,0.1013,0.1015,0.1017,0.1051,0.1059,0.1066,0.0979,0.0979,0.0979,0,0,0.0598,0.0622,0.0653,0.0684,0.0736,0.0753,0.0774,0.0821,0.0851,0.0903,0.0911,0.0942,0.0989,0.0997,0.1005,0.1043,0.106,0.1054,0.1075,0.1109,0.1116,0.1122,0.1161,0.117,0.1056,0.1056,0.1056,0,0.0608,0.0648,0.067,0.0709,0.0732,0.0769,0.0808,0.084,0.0899,0.0917,0.0929,0.0988,0.1002,0.1034,0.1044,0.1051,0.108,0.1058,0.1114,0.112,0.1126,0.1164,0.1174,0.1058,0.1058,0.1057,0.1057,0,0.0654,0.069,0.0711,0.0765,0.0795,0.0836,0.0871,0.0909,0.0939,0.0962,0.1015,0.1036,0.1072,0.1074,0.1073,0.1116,0.1128,0.1115,0.1104,0.1136,0.1174,0.1184,0.106,0.106,0.1059,0.1059,0,0,0.0664,0.0729,0.0741,0.0763,0.0827,0.0847,0.0898,0.0942,0.097,0.1023,0.1072,0.1093,0.1113,0.1124,0.1131,0.1151,0.1213,0.1156,0.1157,0.1196,0.1306,0.1221,0.1224,0.122,0.1222,0.1223,0.1321,0,0.07,0.0758,0.0787,0.0839,0.0868,0.0901,0.0939,0.0981,0.1017,0.1075,0.1102,0.1154,0.1131,0.1165,0.1182,0.1207,0.1239,0.1188,0.1268,0.1271,0.1192,0.1232,0.1228,0.1328,0.1331,0.1332,0.1334,0,0.074,0.0767,0.0821,0.086,0.0878,0.0916,0.0962,0.1005,0.1078,0.1116,0.1171,0.1205,0.1257,0.124,0.1297,0.1274,0.1299,0.1308,0.1312,0.1227,0.1203,0.1287,0.1351,0.135,0.1348,0.1347,0.1346,0,0.072,0.0785,0.0817,0.0836,0.0893,0.0923,0.0964,0.1023,0.1069,0.1165,0.1218,0.1272,0.1334,0.1359,0.1374,0.1358,0.1439,0.1417,0.1365,0.136,0.1395,0.1387,0.147,0.1469,0.1469,0.1469,0.1469,0,0.0728,0.0753,0.0812,0.0829,0.0871,0.092,0.0979,0.1027,0.1124,0.1183,0.1253,0.1308,0.137,0.1417,0.1417,0.1417,0.1478,0.1379,0.1379,0.1406,0.1398,0.1403,0.1393,0.1473,0.1472,0.1471,0.147,0,0.0698,0.0741,0.0771,0.0835,0.0865,0.0896,0.1006,0.1045,0.114,0.1232,0.1278,0.1375,0.1427,0.1462,0.1516,0.147,0.1476,0.1464,0.1507,0.1507,0.1371,0.1363,0.1425,0.1423,0.1421,0.142,0.1419,0,0.0676,0.0691,0.0768,0.0794,0.0832,0.0899,0.0952,0.1056,0.1104,0.1245,0.1285,0.1389,0.1435,0.1448,0.1481,0.1494,0.1469,0.1474,0.14,0.1372,0.1367,0.1362,0.1356,0.1416,0.1415,0.1415,0.1414,0,0.0622,0.0662,0.0696,0.0767,0.0821,0.0873,0.0959,0.0999,0.1113,0.1205,0.1271,0.1312,0.1379,0.1404,0.1431,0.1426,0.1464,0.1454,0.1457,0.1388,0.1361,0.1357,0.1353,0.1408,0.1409,0.1409,0.141,0,0.0582,0.0598,0.0666,0.0724,0.0787,0.0835,0.0885,0.0953,0.1022,0.117,0.1186,0.1284,0.1369,0.1371,0.1384,0.1383,0.1361,0.1309,0.1319,0.1327,0.1243,0.1192,0.1196,0,0,0,0,0,0.0538,0.0574,0.0621,0.0685,0.0746,0.0793,0.0881,0.0931,0.1043,0.1063,0.1126,0.1176,0.1223,0.1269,0.1249,0.1338,0.1361,0.1308,0.1305,0.1372,0.1379,0.1286,0,0,0,0,0,0,0.0519,0.0563,0.0607,0.0647,0.0683,0.0747,0.0802,0.0875,0.0889,0.1,0.1028,0.1108,0.1163,0.1223,0.1227,0.1241,0.1216,0.1367,0.1364,0.1367,0.1374,0.138,0.1287,0,0,0,0,0]},{"header":{"parameterUnit":"m.s-1","parameterCategory":2,"la1":30.2991,"la2":30.254,"lo1":-89.0895,"lo2":-89.0444,"dy":0.0017,"dx":0.0017,"nx":28,"ny":28,"refTime":"2025-03-20T21:00:00:Z","depth":"4","parameterNumber":3,"parameterNumberName":"V-component_of_CURRENTS"},"data":[0,0,0,0,0,0,0,0,0,0,0,0,0,0,0,0,0,0,0,0,0,0,0,0,0,0,0,0,0,0,0,0,0,0,0,0,0,0,0,0,0,0,0,0,0,0,0,0,0,0,0,0,0,0,0,0,0,0,0.0295,0.0295,0,0.022,0.0219,0.0218,0.019,0.019,0.0191,0.0191,0.0089,0.0086,0.0083,0,0,0,0,0,0,0,0,0,0,0,0,0,0.0346,0.0346,0.0295,0.0295,0.0294,0.022,0.0219,0.0217,0.019,0.0191,0.0191,0.0192,0.0091,0.0087,0.0083,0,0,0,0,0,0,0,0,0,0,0,0,0,0.03,0.0345,0.0296,0.0274,0.0271,0.022,0.0219,0.0217,0.019,0.0191,0.0191,0.0192,0.0092,0.0087,0.0082,0.0037,0,0,0.0068,0.0066,0,0,0,0,0,0,0,0,0.0303,0.0298,0.0277,0.0275,0.0272,0.0218,0.0199,0.0157,0.019,0.0218,0.0191,0.0192,0.0131,0.0123,0.0104,0.0033,0.0028,0.0067,0.0064,0.0062,0.0061,0,0,0,0,0,0,0,0.0306,0.0301,0.0263,0.0277,0.0273,0.0244,0.0238,0.0191,0.0168,0.0215,0.0214,0.021,0.0129,0.0108,0.0101,0.0027,0.0067,0.0063,0.006,0.0058,-0.0074,-0.0075,0,0,0,0,0,0,0.0324,0.0304,0.0265,0.0261,0.0293,0.0243,0.0236,0.0232,0.0169,0.0162,0.0209,0.0209,0.0116,0.0107,0.0097,0.0049,0.0062,0.0058,0.0055,-0.0074,-0.0074,-0.0075,0,0,0,0,0,0,0.0325,0.0321,0.0268,0.0283,0.0275,0.0242,0.0236,0.023,0.0208,0.0165,0.0157,0.0194,0.0116,0.0104,0.0052,0.0044,0.0056,0.0051,-0.0073,-0.0074,-0.0075,-0.0054,0,0,0,0,0,0,0.0327,0.0322,0.0322,0.0284,0.0274,0.0232,0.0236,0.0228,0.0206,0.0205,0.015,0.0141,0.0116,0.0059,0.0047,0.0038,0.0048,-0.0072,-0.0073,-0.0074,-0.0054,-0.0054,-0.0055,0,0,0,0,0,0.0329,0.0321,0.0322,0.0318,0.0277,0.0232,0.0223,0.0201,0.0205,0.0185,0.0155,0.0143,0.0044,0.0054,0.004,0.003,-0.0071,-0.0073,-0.0074,-0.0054,-0.0054,-0.0055,0,0,0,0,0,0,0.0336,0.0317,0.0317,0.0303,0.0271,0.0228,0.0211,0.0198,0.0157,0.0157,0.0124,0.0112,0.0066,0.0041,0.0054,-0.0011,-0.0012,-0.0017,0.0008,0.0007,0.0007,0.0037,0.0044,0,0,0,0,0,0.0342,0.0335,0.0305,0.0293,0.0279,0.0246,0.0226,0.0209,0.0172,0.0155,0.0119,0.0083,0.0047,0.0023,-0.0016,-0.0062,-0.0071,-0.0075,-0.0075,-0.0075,-0.006,-0.0082,-0.0083,-0.008,-0.008,-0.008,0,0,0.0343,0.0331,0.0328,0.0295,0.027,0.0244,0.0234,0.02,0.0183,0.0148,0.0109,0.0075,0.0035,-0.0009,-0.0031,-0.0031,-0.0084,-0.0077,-0.0076,-0.0061,-0.0084,-0.0084,-0.0084,-0.0081,-0.0081,-0.0081,0,0,0.0331,0.0329,0.0315,0.0291,0.0257,0.0237,0.023,0.0184,0.0168,0.0122,0.0103,0.0068,0.0,-0.0021,-0.0041,-0.0069,-0.0085,-0.0085,-0.0064,-0.0087,-0.0087,-0.0087,-0.0107,-0.0109,-0.0084,-0.0084,-0.0084,0,0.0335,0.0321,0.03,0.0277,0.0271,0.0238,0.0223,0.0191,0.0135,0.0135,0.0112,0.0044,0.0,-0.0026,-0.0037,-0.0068,-0.0081,-0.0058,-0.0085,-0.0085,-0.0085,-0.0107,-0.0109,-0.0083,-0.0084,-0.0084,-0.0084,0,0.0305,0.0302,0.0289,0.0264,0.0246,0.0226,0.0194,0.0174,0.0157,0.0137,0.0104,0.0045,0.0015,-0.0012,-0.0039,-0.0059,-0.0069,-0.0082,-0.0078,-0.0084,-0.0107,-0.0109,-0.0082,-0.0083,-0.0083,-0.0083,0,0,0.0302,0.0279,0.0277,0.0289,0.0248,0.0239,0.0213,0.0198,0.0211,0.0145,0.0152,0.0076,0.006,0.0038,-0.0001,-0.0028,-0.0059,-0.0055,-0.0057,-0.0064,-0.0107,-0.0108,-0.0111,-0.0076,-0.0076,-0.0077,-0.0125,0,0.0293,0.0281,0.0263,0.0266,0.0267,0.0251,0.0243,0.0226,0.0209,0.0199,0.0149,0.0127,0.0074,0.0062,0.0024,-0.0035,-0.0063,-0.0044,-0.0109,-0.0111,-0.0102,-0.0113,-0.0077,-0.0127,-0.0127,-0.0128,-0.0128,0,0.0272,0.0279,0.0286,0.0314,0.0313,0.0309,0.0335,0.0318,0.0296,0.0281,0.025,0.021,0.0154,0.011,0.0015,0.003,-0.0033,-0.0081,-0.0085,-0.0088,-0.0116,-0.012,-0.0133,-0.0133,-0.0133,-0.0132,-0.0132,0,0.0305,0.0302,0.0329,0.033,0.0337,0.0355,0.0359,0.0352,0.0359,0.0335,0.0334,0.027,0.023,0.0149,0.0033,0.0025,-0.0068,-0.0091,-0.0147,-0.0148,-0.0141,-0.014,-0.0147,-0.0147,-0.0147,-0.0147,-0.0147,0,0.0316,0.0341,0.0355,0.0371,0.0421,0.0405,0.0449,0.0444,0.0435,0.0445,0.0381,0.0363,0.0237,0.0162,0.006,-0.0051,-0.0049,-0.0137,-0.0158,-0.0134,-0.0132,-0.0143,-0.0142,-0.0149,-0.0148,-0.0148,-0.0148,0,0.0351,0.0353,0.0395,0.0423,0.0438,0.0475,0.0502,0.0527,0.0512,0.0517,0.0506,0.0426,0.0326,0.0207,0.0069,-0.0013,-0.0117,-0.0156,-0.0114,-0.0133,-0.0189,-0.0186,-0.0218,-0.0218,-0.0218,-0.0218,-0.0219,0,0.0374,0.0395,0.0443,0.0475,0.0493,0.0538,0.0567,0.0565,0.0579,0.0549,0.0547,0.0462,0.0393,0.0209,0.0076,-0.0094,-0.0126,-0.0175,-0.0189,-0.0177,-0.0195,-0.0192,-0.0189,-0.0219,-0.0219,-0.0219,-0.0219,0,0.0423,0.0437,0.0468,0.0528,0.0571,0.0616,0.0648,0.0662,0.0648,0.0638,0.0579,0.0476,0.0365,0.021,0.0083,-0.0046,-0.0139,-0.0179,-0.0179,-0.0194,-0.018,-0.0196,-0.0193,-0.022,-0.022,-0.022,-0.022,0,0.0464,0.0492,0.0523,0.0575,0.0629,0.0667,0.0685,0.0685,0.0689,0.0645,0.0621,0.0495,0.0416,0.0234,0.0112,-0.0006,-0.0045,-0.0089,-0.0095,-0.0096,-0.0051,-0.0015,-0.0017,0,0,0,0,0,0.0497,0.0516,0.0568,0.0614,0.0664,0.0692,0.0725,0.0729,0.0715,0.0681,0.0649,0.0542,0.035,0.0266,0.0148,0.0102,-0.0063,-0.004,-0.0116,-0.0226,-0.0225,-0.0194,0,0,0,0,0,0,0.0513,0.0556,0.0567,0.0628,0.0666,0.0717,0.074,0.0733,0.0707,0.0677,0.058,0.0515,0.0335,0.0423,0.0148,0.0111,0.0046,-0.0132,-0.0134,-0.0227,-0.0226,-0.0225,-0.0193,0,0,0,0,0]}]]